Regional Weather Roundup
Issued by NWS

Home | Current Version | Previous Version | Graphics & Text | Print | Product List | Glossary Off
Versions: 1 2 3 4 5 6 7 8 9 10 11 12 13 14 15 16 17 18 19 20 21 22 23 24 25 26 27 28 29 30 31 32 33 34 35 36 37 38 39 40 41 42 43 44 45 46 47 48 49 50

000
ASUS43 KFSD 231010
RWRSD

WEATHER ROUNDUP FOR SOUTH DAKOTA
NATIONAL WEATHER SERVICE SIOUX FALLS SD
400 AM CST FRI FEB 23 2018

NOTE: "FAIR" INDICATES FEW OR NO CLOUDS BELOW 12,000 FEET WITH NO
SIGNIFICANT WEATHER AND/OR OBSTRUCTIONS TO VISIBILITY.


SDZ001>005-009-010-012>017-231100-
NORTHWEST AND NORTH CENTRAL SOUTH DAKOTA

CITY           SKY/WX    TMP DP  RH WIND       PRES   REMARKS
BUFFALO          N/A     -1  -8  72 NW14      30.06S WCI -20
FAITH            N/A      0  -3  87 NW14      30.14S WCI -19
MOBRIDGE       CLOUDY    13   9  84 NW10      30.13S WCI   0
$$

SDZ012>016-024>037-041>051-057-063-072>074-231100-
SOUTHWEST AND SOUTH CENTRAL SOUTH DAKOTA

CITY           SKY/WX    TMP DP  RH WIND       PRES   REMARKS
RAPID CTY ARPT CLEAR      0  -6  76 N10       30.13R WCI -16
PIERRE         CLEAR      6   4  91 W10       30.17R WCI  -9
CUSTER         PTCLDY     2  -5  72 NW3       29.97S
ELLSWORTH AFB  CLEAR      9  -1  64 N10       30.11S WCI  -6
PHILIP         PTCLDY     0  -4  83 W12       30.19R WCI -17
PINE RIDGE     PTCLDY    -4  -8  83 NE3       30.14S
SPEARFISH        N/A      5  -6  61 W5        30.10R WCI  -4
WINNER         CLOUDY    15  11  83 NW13      30.17R WCI   1
$$

SDZ004>011-016>023-039-040-231100-
NORTHEAST SOUTH DAKOTA

CITY           SKY/WX    TMP DP  RH WIND       PRES   REMARKS
ABERDEEN       CLOUDY    19  17  92 NW8       30.13F WCI   9
WATERTOWN      CLOUDY    18  17  96 W8        30.07R WCI   8
BROOKINGS      CLOUDY    17  16  95 W8        30.08F WCI   7
SISSETON         N/A     19  17  92 NW9       30.10R WCI   8
$$

SDZ017-020-022-023-036>040-048>070-231100-
SOUTHEAST SOUTH DAKOTA

CITY           SKY/WX    TMP DP  RH WIND       PRES   REMARKS
SIOUX FALLS    CLOUDY    19  18  95 W7        30.12R FOG     WCI  10
HURON          CLOUDY    11   9  92 W7        30.14R WCI   0
CHAMBERLAIN    CLOUDY    16  15  95 W8        30.19R WCI   5
MITCHELL       CLOUDY    10   8  92 W8        30.17R FOG     WCI  -2
YANKTON        PTCLDY    17  16  95 W8        30.16R WCI   7
$$

ABBREVIATIONS USED IN REMARKS
   TC - TEMPERATURE IN CELSIUS
  WCI - WIND CHILL INDEX
   HX - HEAT INDEX
  VSB - VISIBILITY





USA.gov is the U.S. government's official web portal to all federal, state and local government web resources and services.